Location: Chełm
(51.1339°N, 23.4725°E)
Time: 17:42:37
(UTC+01:00)

ISS - Pass Details

Date: 29 January 2019
Orbit: 403 x 411 km, 51.6° (Epoch: 20 February)

Event Time Altitude Azimuth Distance (km) Brightness Sun altitude
Rises 16:40:49 0° 234° (SW) 2,325 2.0 -5.1°
Reaches altitude 10° 16:42:56 10° 228° (SW) 1,469 0.4 -5.4°
Maximum altitude 16:46:06 44° 155° (SSE) 580 -3.1 -5.9°
Drops below altitude 10° 16:49:16 10° 82° (E) 1,480 -1.6 -6.3°
Enters shadow 16:49:39 - 80° (E) 1,633 -1.4 -6.4°
